Temp_Advection
nan nan nan nan nan nan nan nan nan nan nan nan nan nan nan nan nan nan nan nan nan nan nan nan nan nan nan nan nan nan nan nan nan nan nan nan nan nan nan nan nan nan nan nan nan nan nan nan nan nan nan nan nan nan nan nan nan nan nan nan nan nan nan nan nan nan nan nan nan
nan -1 -1 -0 -0 -0 0 0 0 1 0 0 -0 -0 -0 0 0 0 -1 -1 -1 -1 -0 -0 0 0 0 0 0 0 -0 -0 -0 -0 -0 0 0 0 -0 -0 -0 0 0 0 0 0 0 0 0 -0 -0 -0 -0 -0 -0 -0 -0 -0 -0 -0 -0 0 0 0 0 0 0 0 nan
nan -0 -0 -0 -0 -0 -0 -0 -1 -1 -0 -0 0 0 1 1 1 -1 -1 -1 -0 -0 0 -0 0 0 0 0 0 0 -0 -0 -0 -0 -0 0 0 0 -0 -0 -0 0 0 0 0 0 0 0 -0 -0 -0 -0 -0 -0 -0 -0 -0 -0 -0 -0 0 0 0 0 0 0 0 0 nan
nan 0 -0 -0 -0 -0 -1 -1 -2 -1 -1 -0 -0 1 2 1 0 -1 -1 -0 0 0 0 0 0 0 0 0 0 -0 -0 -0 -0 -0 0 0 0 -0 -0 -0 -0 0 0 0 0 0 0 0 -0 -0 -0 -0 -0 -0 -0 -0 -0 -0 -0 -0 0 0 0 0 0 0 1 1 nan
nan 0 0 -0 -0 -0 -1 -1 -1 -0 -1 -1 -0 1 1 0 -0 0 1 1 0 0 0 0 0 0 0 0 0 -0 -0 -0 -0 0 0 0 -0 -0 -0 -0 -0 -0 0 0 0 0 0 0 -0 -0 -0 -0 -0 -0 -0 -0 -0 -0 -0 -0 -0 -0 -0 0 0 1 1 0 nan
nan 0 0 -0 0 0 -0 -0 -0 -0 -0 -0 0 1 0 -0 -0 0 1 1 0 0 0 0 0 0 0 0 0 0 -0 -0 0 1 0 -0 -0 -0 -0 -0 -0 -0 0 0 0 0 0 -0 -0 -0 -0 -0 -0 -0 -0 0 0 -0 -0 -1 -1 -1 -0 0 0 0 0 0 nan
nan -0 -0 -0 -0 0 0 0 0 0 0 1 1 0 -0 -0 0 0 0 0 -0 0 0 0 0 0 0 0 0 0 0 0 1 0 0 -0 -0 -0 -0 -0 -0 -0 0 0 0 0 0 -0 -0 -0 -0 -0 -0 -0 -0 0 0 -0 -1 -1 -1 -1 -0 0 0 0 -0 -0 nan
nan 0 -0 -0 0 0 0 0 1 1 1 1 1 0 0 1 0 0 0 -0 -0 -0 -0 0 0 0 0 1 1 1 1 1 0 -0 -0 -0 -0 -0 -0 -0 -0 0 0 0 0 0 -0 -0 -0 -0 -0 -0 -0 -0 -0 -0 -0 -0 -0 -1 -0 -0 0 0 -0 -0 -0 -0 nan
nan 0 0 0 0 0 0 0 0 1 1 0 0 1 1 1 0 0 0 -0 -0 -0 0 0 0 1 1 1 1 1 1 0 -0 -1 -1 -0 -0 0 0 0 0 0 0 0 0 0 -0 -0 -0 -0 -0 -0 -0 -0 -0 -0 -0 -0 -0 0 0 1 1 0 -0 -0 -0 -0 nan
nan 0 0 0 0 0 0 0 0 0 0 -0 0 1 1 1 0 0 0 0 0 0 0 0 1 1 1 2 1 1 0 -0 -1 -1 -0 -0 0 0 0 0 0 0 0 0 0 0 -0 -0 -0 -0 -0 -0 -0 0 0 0 -0 -0 0 0 1 1 1 0 0 -0 0 0 nan
nan 0 0 -0 -0 0 0 0 0 0 0 0 1 1 0 0 0 1 1 1 0 0 0 1 1 1 2 1 1 0 -0 -1 -1 -0 0 0 0 0 0 0 0 0 0 0 0 -0 -0 -0 -0 -0 -0 -0 0 0 0 0 -0 -0 0 0 1 1 0 0 0 0 0 0 nan
nan 0 0 0 0 0 0 0 0 0 0 1 1 1 0 1 1 1 1 0 0 0 0 1 1 1 1 0 -0 -0 -1 -0 -0 0 0 0 0 0 0 0 0 0 0 0 0 -0 -0 -0 -0 -0 -0 -0 0 0 0 0 -0 -0 -0 0 0 0 0 0 0 0 0 0 nan
nan 0 0 0 0 0 0 0 0 0 1 1 0 0 1 1 1 0 0 0 0 0 1 1 1 0 0 -0 -0 -0 -0 0 0 0 1 1 1 1 0 0 0 0 0 0 0 -0 -0 -0 -0 -0 -0 -0 0 0 0 -0 -0 -0 -0 -0 -0 -0 -0 0 0 0 0 0 nan
nan 0 0 0 1 0 0 0 0 0 0 0 0 0 0 0 0 -0 -0 0 0 0 0 0 0 -0 -0 -0 -0 0 1 1 1 1 1 1 1 1 0 0 0 0 0 0 0 0 0 -0 -0 -0 -0 0 0 0 0 -0 -0 -0 -0 -0 -0 -0 -0 0 0 0 0 0 nan
nan -0 0 0 0 0 1 1 0 0 0 0 0 -0 -0 -0 -0 -0 -0 0 0 0 -0 -0 -0 -0 -0 0 0 1 1 1 1 1 1 1 1 1 1 0 0 0 0 0 0 0 0 0 0 0 0 0 0 0 -0 -0 -0 -0 -0 -0 -0 0 0 0 0 0 0 0 nan
nan 0 0 -0 -0 0 0 0 0 0 0 0 -0 -0 -0 -0 -0 -0 -0 0 0 -0 -0 -0 0 0 0 0 1 1 0 0 0 1 1 1 1 1 1 0 0 0 0 0 0 0 0 0 0 0 0 0 0 -0 -0 -0 -0 -0 -0 -0 0 0 0 0 0 0 0 0 nan
nan -0 0 0 0 -0 -0 0 0 0 0 0 -0 -0 -0 -0 -0 -0 0 0 0 0 0 0 0 0 0 0 0 0 0 0 0 0 0 0 0 0 0 0 0 0 0 0 0 0 0 0 0 0 0 0 0 -0 -0 -0 -0 -0 0 0 0 0 0 0 0 0 0 0 nan
nan -0 -0 0 0 0 0 -0 0 0 0 0 0 0 0 -0 -0 0 0 0 0 0 0 0 0 0 0 0 0 0 0 0 0 0 0 0 0 0 0 0 0 0 0 0 0 0 0 0 0 0 0 0 -0 -0 -0 -0 -0 0 0 0 0 0 0 0 0 0 0 0 nan
nan -0 -0 -0 -0 0 0 0 0 0 0 0 0 0 0 0 0 0 0 0 0 0 0 0 0 0 0 0 0 0 0 0 0 0 0 0 0 0 0 0 0 0 0 0 0 0 0 0 0 0 0 -0 -0 -0 -0 -0 0 0 0 0 0 0 0 0 0 0 0 0 nan
nan 0 0 -0 -0 -0 0 0 0 0 0 -0 -0 -0 0 0 0 0 0 0 0 0 0 0 0 0 0 0 0 0 -0 0 0 0 0 0 0 0 0 0 0 0 0 0 0 0 0 0 -0 -0 -0 -0 -0 -0 -0 0 0 0 0 0 0 0 0 0 0 0 0 -0 nan
nan 0 0 0 0 -0 -0 0 0 0 0 -0 -0 -0 -0 0 0 0 0 0 0 0 0 -0 -0 -0 -0 -0 -0 -0 -0 -0 -0 -0 0 -0 -0 -0 0 0 0 0 -0 -0 -0 -0 -0 -0 -0 -0 -0 -0 -0 -0 -0 0 0 0 0 0 0 0 0 0 0 0 0 0 nan
nan 0 0 0 0 0 -0 -0 0 0 0 -0 -0 -0 -0 -0 0 -0 0 0 -0 -0 -0 -0 -0 -0 -0 -0 -0 -0 -0 -0 -0 -0 -0 -0 -0 -0 -0 -0 -0 -0 -0 -0 -0 -0 -0 -0 -0 -0 -0 -0 -0 -0 0 0 0 0 0 0 0 0 0 0 0 0 0 0 nan
nan 0 -0 -0 -0 0 0 -0 -0 -0 0 0 -0 -0 -0 -0 -0 -0 -0 -0 0 0 0 -0 -0 -0 -0 -0 -0 -0 -0 -0 -0 -0 -0 -0 -0 -0 -0 -0 -0 -0 -0 -0 -0 -0 -0 -0 -0 -0 -0 -0 -0 0 0 0 0 0 0 0 0 0 0 0 0 0 0 0 nan
nan 0 0 -0 -0 0 0 0 -0 -0 -0 0 0 -0 -0 -0 -0 -0 -0 -0 -0 -0 -0 -0 -0 -0 -0 -0 -0 -0 -0 -0 -0 -0 -0 -0 -0 -0 -0 -1 -1 -1 -1 -0 -0 -0 -0 0 -0 -0 -0 -0 -0 0 0 0 0 0 0 0 0 0 0 0 0 0 0 0 nan
nan 1 0 0 0 0 -0 0 0 0 -0 -0 0 0 -0 -0 -0 -0 -0 -0 -0 -0 -0 -0 -0 -0 0 -0 -0 -0 -0 -0 -0 -0 -0 -0 -0 -0 -0 -0 -1 -1 -0 -0 -0 -0 0 0 0 -0 -0 -0 0 0 0 0 0 0 0 0 0 0 0 0 0 0 0 0 nan
nan 0 1 1 0 0 0 0 0 0 0 -0 -0 0 0 -0 -0 -0 -0 -0 -0 -0 0 0 0 0 0 0 -0 -0 -0 -0 -0 -0 -0 -0 -0 -0 -0 -0 -0 -0 -0 -0 -0 0 0 0 0 -0 -0 0 0 0 0 0 0 0 0 0 0 0 0 0 0 0 -0 -0 nan
nan -0 0 0 0 0 0 0 0 0 0 0 0 0 0 0 0 0 0 0 0 0 0 0 0 0 0 0 -0 -0 -0 -0 -0 -0 -0 -0 -0 0 0 0 0 -0 -0 -0 0 0 0 -0 -0 -0 -0 0 0 0 0 0 0 0 0 0 0 0 0 0 0 -0 -0 -0 nan
nan -0 -0 -0 -0 0 0 -0 -0 -0 -0 0 0 0 0 0 0 0 0 0 0 0 0 0 0 0 -0 -0 -0 -0 -0 -0 -0 -0 -0 0 0 0 0 0 0 0 0 0 0 0 0 -0 -0 -0 -0 0 0 0 0 0 0 0 0 0 0 0 0 0 -0 -0 -0 0 nan
nan -0 -0 -0 -0 -0 0 -0 -0 -0 -0 -0 -0 -0 -0 -0 -0 -0 -0 -0 0 0 -0 0 0 -0 -0 -0 -0 -0 -0 -0 -0 -0 -0 -0 0 0 0 0 0 0 0 0 0 0 0 0 0 0 0 0 0 0 0 0 0 0 0 -0 0 0 0 0 -0 -0 0 0 nan
nan -0 -0 -0 -0 -0 -0 0 -0 -0 -0 -0 -0 -0 -0 -0 -0 -0 -0 -0 -0 0 0 0 -0 -0 -0 -0 -0 -0 -0 -0 -0 -0 -0 -0 -0 -0 0 0 0 0 0 0 0 0 0 0 0 0 0 0 0 0 0 0 -0 -0 -0 0 0 0 0 0 -0 -0 0 -0 nan
nan -0 -0 -0 -0 -0 -0 -0 0 0 0 0 0 -0 -0 -0 -0 -0 -0 -0 -0 0 0 -0 -0 -0 -0 -0 -0 -0 0 0 0 -0 -0 -0 -0 0 0 0 0 0 0 0 0 0 0 0 0 0 0 0 0 0 0 -0 -0 -0 0 0 0 0 0 -0 -0 -0 0 -0 nan
nan -0 -1 -0 -0 -0 -0 -0 -0 0 0 0 0 0 -0 -0 -0 -0 -0 -0 -0 -0 -0 -0 -0 -0 -0 -0 -0 -0 0 0 -0 -0 -0 -0 0 0 0 0 0 0 0 0 0 0 0 0 0 0 0 0 0 0 0 0 0 0 0 0 0 0 -0 -0 -0 -0 0 0 nan
nan -0 -0 -1 -1 -0 -0 -0 -0 -0 -0 0 0 0 0 -0 -0 -0 -0 -0 -0 -0 -0 -0 -0 -0 -0 -0 -0 -0 -0 -0 -0 -0 -0 0 0 0 0 0 0 0 0 0 0 0 0 0 0 0 0 0 0 0 0 0 0 0 0 0 0 0 -0 -0 -0 -0 0 0 nan
nan -0 -0 -1 -1 -1 -0 0 0 -0 -0 -0 -0 -0 0 0 0 0 -0 -0 -0 -0 -0 -0 0 0 0 -0 0 0 -0 -0 -0 -0 -0 0 0 0 0 0 0 0 0 0 0 0 0 0 0 0 0 0 0 0 0 0 0 0 0 -0 0 0 0 -0 -0 -0 0 0 nan
nan -0 -0 -0 -1 -1 -1 -1 -0 0 -0 -0 -0 -0 -0 0 0 0 0 0 0 -0 -0 -0 0 0 0 0 0 -0 -0 -0 -0 0 0 0 -0 0 0 0 0 0 0 0 0 0 0 0 0 0 0 0 0 0 0 0 0 -0 -0 0 0 0 0 -0 -0 -0 0 0 nan
nan -1 -0 -0 -0 -1 -1 -1 -1 -0 -0 -0 -0 -0 -0 -0 -0 -0 0 0 -0 -0 -0 -0 -0 0 0 0 0 0 -0 -0 -0 0 0 0 0 0 0 0 0 0 0 0 0 0 0 0 0 0 0 0 0 0 -0 -0 -0 -0 -0 0 0 0 -0 -0 -0 -0 -0 0 nan
nan -1 -1 -1 -0 -0 -0 -1 -1 -1 -1 -0 -0 -0 -0 -0 -0 -0 -0 -0 -0 -0 -0 -0 -0 -0 -0 -0 0 0 0 0 0 0 0 -0 -0 -0 0 0 0 0 0 0 0 0 0 0 -0 -0 -0 -0 -0 -0 -0 -0 -0 -0 0 0 0 0 -0 -0 -0 -0 0 0 nan
nan -1 -1 -1 -1 -0 -0 -0 -1 -1 -1 -1 -0 -0 -0 -0 -0 -0 -0 -0 -0 -0 -0 -0 -0 -0 -0 0 0 0 0 0 0 0 -0 -0 -0 -0 -0 0 0 0 0 0 0 0 0 -0 -0 -0 -0 -0 -0 -0 -0 -0 0 0 0 -0 -0 -0 -0 -0 -0 0 0 0 nan
nan -0 -1 -1 -1 -1 -0 -0 -0 -1 -1 -1 -1 -1 -0 -1 -0 -0 -0 -0 -0 -0 -0 0 0 0 0 0 0 0 0 0 0 0 -0 -0 -0 -0 -0 -0 0 0 0 0 0 0 0 -0 -0 -0 0 0 -0 0 0 0 0 0 -0 -0 -0 -0 -0 -0 -0 0 0 0 nan
nan -0 -0 -0 -1 -1 -1 -0 -0 -0 -0 -1 -1 -1 -1 -1 -0 -0 -0 -0 -0 0 0 1 0 0 -0 -0 -0 0 0 0 0 0 0 0 0 0 -0 -0 0 0 0 0 0 0 0 -0 -0 -0 -0 0 0 0 0 0 0 -0 -0 -0 -0 -0 -0 -0 -0 -0 -0 -0 nan
nan nan nan nan nan nan nan nan nan nan nan nan nan nan nan nan nan nan nan nan nan nan nan nan nan nan nan nan nan nan nan nan nan nan nan nan nan nan nan nan nan nan nan nan nan nan nan nan nan nan nan nan nan nan nan nan nan nan nan nan nan nan nan nan nan nan nan nan nan
Wind_Speed
34 34 35 36 36 36 35 35 36 37 38 37 35 34 34 36 36 36 35 33 30 30 30 30 30 29 29 28 26 25 25 24 22 21 20 19 18 17 17 17 18 18 17 17 17 17 17 17 18 19 19 20 20 21 21 21 21 21 21 21 20 20 20 20 20 20 20 20 19
32 32 33 34 35 35 35 34 35 36 35 32 31 32 34 38 39 38 35 32 29 29 29 29 28 28 27 26 25 24 23 22 22 21 20 19 18 18 18 18 18 18 17 17 17 17 17 18 18 19 20 20 21 21 21 21 21 21 21 21 20 20 20 20 20 20 20 19 18
29 30 31 33 35 35 34 33 34 35 34 31 29 31 35 38 39 38 34 30 28 28 28 28 28 27 26 25 24 23 22 22 21 20 20 19 19 18 18 18 18 18 18 17 17 17 17 18 18 19 20 21 21 21 21 21 21 21 20 20 20 20 19 19 19 19 19 18 17
27 29 31 33 34 35 34 33 34 35 34 32 30 31 34 36 36 35 32 29 28 28 28 27 27 27 26 24 23 22 22 21 20 20 19 19 19 19 19 19 19 19 18 17 17 16 17 17 18 19 20 21 21 21 21 21 21 20 20 20 19 19 18 19 19 19 18 17 16
26 28 29 31 33 34 34 34 34 34 33 32 32 32 32 32 32 31 29 29 28 28 27 27 27 26 25 24 22 22 22 21 21 20 19 18 18 19 19 20 20 19 18 17 16 16 17 17 18 20 20 21 21 21 20 20 20 20 20 19 18 18 18 18 18 18 17 16 15
25 25 26 27 30 31 32 32 32 33 33 33 33 32 31 30 29 27 27 27 28 27 27 26 26 26 25 24 23 22 22 21 21 20 19 18 18 19 19 20 20 19 18 17 16 16 17 17 19 20 21 21 21 20 20 20 20 19 19 18 18 17 17 17 18 17 17 16 15
23 23 23 23 25 28 30 31 32 33 34 34 33 32 30 29 28 26 25 25 26 26 26 26 26 26 25 25 24 23 23 22 21 20 19 18 18 19 20 20 20 19 18 17 17 16 17 18 19 20 21 21 20 20 20 19 19 19 18 18 18 17 17 17 17 17 16 15 14
22 22 21 20 21 23 26 29 31 32 33 32 31 30 29 28 27 26 24 23 24 25 25 26 26 27 27 26 25 24 24 23 22 20 19 18 19 19 20 20 20 19 18 18 17 17 17 18 20 21 21 21 20 20 20 19 19 18 18 18 18 17 17 17 16 16 15 14 14
22 22 21 19 19 21 24 26 28 29 29 28 28 28 28 26 25 24 23 23 23 23 24 25 26 27 28 27 26 25 23 22 21 20 19 19 19 20 20 20 20 19 19 18 17 17 18 19 20 21 21 21 20 20 20 19 19 18 18 18 18 18 17 17 16 16 15 14 14
23 22 21 19 19 20 22 23 23 24 25 25 27 27 26 24 23 22 22 21 21 21 22 24 26 27 28 27 26 24 22 21 20 19 19 19 20 20 20 20 20 19 19 18 18 18 18 20 21 21 21 21 20 20 20 19 19 18 18 18 18 18 18 17 17 16 16 15 14
24 22 21 21 20 20 20 20 20 21 23 24 25 25 23 22 21 20 19 18 18 19 20 22 24 25 26 25 24 22 21 20 20 19 19 19 20 20 20 20 19 19 19 18 18 18 19 20 21 21 21 21 20 20 19 19 18 18 18 18 18 18 18 18 17 17 16 15 15
22 21 21 20 19 18 18 18 19 20 21 22 22 21 21 20 19 17 16 15 16 17 18 19 21 22 22 22 21 20 20 20 20 20 20 19 20 20 20 19 19 19 18 18 18 19 20 21 21 22 22 21 21 20 19 19 18 18 18 18 18 18 18 18 18 17 16 16 16
16 17 18 17 17 17 17 18 18 18 18 17 17 17 17 17 15 13 12 12 14 15 16 17 17 18 18 18 18 18 19 20 20 20 20 20 20 20 20 20 19 19 19 18 19 19 20 21 22 22 22 22 21 20 19 18 18 18 18 18 18 19 19 18 18 17 17 17 17
9 11 12 13 14 15 17 18 18 16 14 13 12 12 13 13 11 9 8 10 12 13 14 14 14 15 15 16 16 17 18 19 19 19 19 19 19 20 20 20 20 19 19 19 19 19 20 20 21 22 22 22 21 20 19 18 18 18 18 18 19 19 19 19 18 18 18 18 18
7 6 8 10 11 13 15 17 16 14 12 9 8 8 9 9 8 7 7 8 11 12 12 12 12 13 14 15 15 16 16 16 17 17 18 18 19 20 20 20 20 20 20 19 19 19 19 20 20 21 21 21 21 20 19 18 18 18 18 19 19 19 19 18 18 17 17 17 17
8 6 5 6 8 10 12 13 12 11 9 7 6 6 6 7 7 7 7 9 10 11 11 12 12 13 13 14 14 14 14 14 15 15 16 17 18 19 20 20 20 20 20 20 20 19 19 19 19 19 20 20 20 19 19 18 18 18 19 19 19 19 18 17 17 16 16 16 16
9 7 6 4 5 6 7 8 8 7 6 6 5 6 6 6 7 7 9 10 11 12 12 12 12 12 12 12 12 12 13 13 14 14 15 16 17 18 19 20 20 20 20 20 20 20 19 18 18 19 19 19 19 18 18 18 18 19 19 19 19 18 18 17 16 16 16 16 15
8 9 8 6 4 4 5 6 7 7 7 7 6 7 7 8 8 8 8 9 10 12 12 12 12 11 11 11 11 11 12 13 13 14 14 15 16 17 18 18 19 19 20 20 20 20 19 19 18 18 18 18 18 18 18 18 18 18 18 18 18 17 17 17 16 16 16 16 16
9 9 9 9 7 5 5 6 7 8 8 7 6 7 8 9 9 9 8 8 8 9 10 11 11 10 10 10 10 11 12 12 13 13 14 14 15 16 16 17 18 18 19 19 19 19 19 19 19 18 18 18 18 17 17 17 18 18 18 17 17 17 17 16 16 16 16 16 15
10 10 11 11 10 9 8 8 8 9 8 7 5 4 5 6 7 8 8 8 7 7 7 8 9 9 9 10 10 11 11 12 13 13 14 14 15 15 16 16 17 17 18 18 19 19 19 19 19 19 19 18 18 18 18 18 17 17 17 17 17 17 17 16 16 16 16 15 15
10 11 11 11 10 10 10 9 8 8 7 6 5 3 2 1 3 4 5 7 7 7 6 7 7 8 8 9 10 10 11 11 12 13 13 14 15 15 15 15 16 17 17 18 18 19 19 19 19 19 19 19 19 18 18 18 17 17 17 17 17 17 16 16 16 16 16 15 15
10 10 10 9 8 8 9 9 8 7 6 5 5 4 2 1 0 1 2 3 3 3 3 4 5 6 7 7 8 9 9 10 11 11 12 13 14 15 15 15 16 16 17 17 18 19 19 20 20 20 19 19 19 19 18 18 18 17 17 17 17 17 16 16 15 15 16 16 16
10 11 10 9 6 5 6 8 9 9 8 7 7 6 5 4 3 2 1 1 1 1 2 2 3 4 5 5 6 7 8 9 9 10 11 12 13 14 15 16 16 17 17 18 18 19 19 20 20 20 20 19 19 19 19 18 18 18 17 17 17 16 15 15 15 15 16 16 15
10 11 11 10 7 5 5 7 9 10 10 10 9 9 8 7 6 5 5 4 4 4 4 4 4 4 4 5 5 6 7 8 8 9 10 11 12 13 15 16 17 17 18 18 18 19 19 20 20 20 20 20 20 19 19 19 18 18 18 17 16 15 15 15 15 16 16 15 15
9 11 11 11 9 8 7 8 10 12 12 12 12 12 11 10 9 9 9 9 9 9 9 7 7 6 6 6 6 6 7 7 8 8 9 9 11 12 14 15 17 17 18 18 19 19 19 19 19 20 20 20 20 20 19 19 19 18 18 17 16 15 15 15 16 16 16 15 15
3 8 10 11 11 10 9 9 10 11 12 12 12 12 13 14 14 14 14 14 14 13 12 11 10 9 8 8 7 7 7 7 7 7 8 8 9 11 13 14 16 17 18 18 18 19 19 19 19 19 19 20 20 19 19 19 19 18 18 17 16 15 15 15 16 16 15 15 15
4 3 6 8 9 9 9 10 10 11 11 11 11 11 12 14 15 16 17 17 16 15 14 13 12 11 10 9 9 8 8 7 7 7 7 8 8 9 11 12 14 16 17 17 18 18 18 19 19 19 19 19 19 19 19 19 18 18 18 17 16 16 16 16 16 16 16 15 15
8 6 4 5 6 7 9 10 10 9 10 10 10 10 10 12 14 15 16 17 16 15 14 14 13 12 11 11 10 9 9 8 8 7 7 7 8 8 9 10 12 13 15 16 16 17 17 18 18 18 19 19 19 19 18 18 18 17 17 16 16 15 16 16 16 16 15 15 15
11 9 7 5 4 5 7 10 10 9 9 10 10 10 10 11 12 14 15 15 15 14 14 13 13 12 12 12 11 10 9 9 8 8 7 7 8 8 8 9 10 11 12 13 14 15 16 16 17 17 18 18 18 18 17 17 17 16 16 15 15 15 15 15 15 15 15 15 15
13 11 9 8 6 4 5 8 10 10 10 10 11 11 12 12 12 14 15 15 15 14 14 13 13 13 12 12 11 11 10 9 9 8 8 8 8 8 8 8 9 9 9 10 11 12 13 14 15 15 16 16 16 16 16 16 15 15 14 14 14 14 14 14 14 14 14 14 14
15 13 11 9 8 6 5 6 8 10 10 11 11 12 12 13 13 14 15 15 15 15 14 14 13 13 13 12 12 11 11 10 10 9 9 8 8 8 8 8 8 8 8 8 9 10 11 12 13 13 14 14 14 15 14 14 14 13 13 13 13 13 13 13 13 13 13 13 14
16 14 12 10 9 8 7 7 7 8 10 11 12 12 12 12 13 13 14 15 15 15 15 15 14 14 13 13 12 12 12 11 11 10 10 9 9 8 8 8 8 7 7 7 8 8 9 10 10 11 12 12 13 13 13 13 12 12 12 12 12 13 12 12 12 12 13 13 13
17 15 14 12 10 9 9 8 8 8 8 10 12 13 13 13 13 13 13 14 15 15 16 16 16 15 14 14 13 13 12 12 11 11 10 10 9 9 8 8 8 7 7 7 7 8 8 8 9 9 10 10 11 11 11 12 12 12 12 12 12 12 12 13 13 13 13 13 12
17 16 15 13 12 11 10 10 10 10 9 9 11 13 13 13 13 13 14 14 15 15 16 17 17 16 16 15 14 14 13 13 12 12 11 11 10 10 10 9 8 8 7 7 7 7 7 7 7 8 8 9 10 10 11 12 12 12 12 12 12 12 12 13 13 13 13 13 13
18 16 15 14 13 12 12 11 11 12 11 10 10 11 13 14 14 14 14 14 15 15 16 17 17 17 17 16 16 15 14 14 13 12 12 12 12 11 11 10 9 8 8 7 7 7 7 6 7 7 7 8 9 9 10 11 12 13 13 13 13 13 13 13 13 13 13 14 14
19 17 16 15 14 13 12 12 13 13 13 12 11 11 12 13 14 15 15 15 15 15 16 17 17 18 18 18 17 16 16 15 14 13 13 13 13 12 12 11 10 9 9 8 8 8 7 7 7 7 7 8 8 9 10 11 12 13 13 14 14 14 14 13 13 14 14 15 16
20 18 17 15 14 13 12 12 13 14 14 14 13 13 12 12 12 13 14 15 15 16 17 17 17 18 18 19 18 18 17 16 15 15 14 14 13 13 12 12 11 10 10 9 9 9 9 8 8 8 9 9 9 9 10 11 12 13 13 14 15 15 15 15 15 15 16 18 19
22 20 18 16 15 14 13 12 12 13 14 15 15 14 13 12 11 11 12 14 15 16 17 18 18 18 18 18 18 18 18 17 17 16 16 15 14 14 13 13 12 11 11 10 10 10 10 10 10 10 10 10 10 10 11 11 11 12 13 15 15 16 16 16 17 17 18 19 20
23 21 19 17 15 14 13 13 12 12 13 14 15 15 14 13 12 11 11 13 14 16 17 18 17 17 17 17 17 18 19 19 18 18 17 16 15 15 14 13 13 12 12 12 12 11 11 10 10 10 10 11 11 12 12 12 12 13 13 14 15 16 17 18 18 18 19 19 20
24 22 20 18 16 15 14 13 12 12 12 13 14 15 16 15 14 12 12 12 14 15 16 16 16 16 16 16 17 18 19 19 19 19 18 18 17 16 15 15 14 14 13 14 14 13 12 11 10 10 10 11 12 13 13 14 14 14 14 15 15 16 17 18 19 19 19 19 20
25 23 21 19 17 16 15 14 13 12 12 12 13 14 16 16 16 14 13 13 13 14 15 15 15 15 15 16 17 18 19 19 19 19 19 19 18 17 16 16 15 15 14 14 15 15 14 13 12 11 11 11 12 12 13 15 16 16 16 16 16 17 17 18 19 19 20 21 22
Wind_Direction
173 172 172 174 176 177 177 178 178 179 180 182 185 189 193 196 197 199 200 200 199 196 194 194 194 196 197 197 197 198 200 202 202 203 203 204 203 203 203 203 202 200 199 198 199 200 201 203 204 204 204 202 202 202 202 202 203 205 206 207 207 207 207 207 208 210 212 215 217
177 177 178 179 179 179 178 176 177 179 181 184 188 192 196 198 200 200 201 201 201 199 197 195 196 197 198 197 197 198 200 202 203 203 203 203 203 203 203 202 201 200 199 198 197 198 199 201 202 202 200 199 198 198 199 200 202 204 206 207 207 207 207 207 208 209 210 213 214
184 184 185 184 184 183 181 178 181 186 190 191 193 196 199 201 201 201 202 204 204 201 198 197 198 199 198 197 197 198 201 203 204 204 203 203 203 203 203 202 201 200 199 198 197 198 199 200 200 200 198 197 196 196 197 198 200 203 206 207 207 207 207 207 206 206 207 208 209
190 190 190 190 191 191 190 190 192 195 197 197 198 200 202 203 203 203 204 206 205 202 199 199 199 199 198 197 197 199 202 204 205 204 204 203 202 202 202 201 201 200 199 198 198 198 199 199 200 199 198 196 196 196 196 197 199 202 204 205 206 206 206 205 204 203 203 203 203
191 192 193 194 195 197 199 201 200 198 197 197 200 202 202 201 200 201 203 205 205 202 200 199 199 199 198 197 198 200 203 205 205 205 204 203 202 201 200 201 200 200 199 198 198 198 199 200 200 199 198 196 195 195 195 196 198 200 201 202 202 202 202 202 201 200 200 200 200
187 188 190 193 195 197 199 202 200 197 196 197 200 201 199 195 195 197 201 203 204 203 201 200 200 199 199 199 200 201 204 205 206 206 205 202 200 200 200 200 200 199 198 198 198 199 199 200 200 200 198 196 195 194 194 195 197 197 198 197 196 196 197 199 199 199 199 199 200
186 185 187 190 193 195 196 197 197 196 197 198 200 200 199 196 196 197 200 203 204 204 203 202 201 201 201 201 202 203 205 206 207 206 204 201 199 199 199 200 199 199 198 198 199 199 200 200 200 199 198 195 192 191 192 193 194 194 194 192 191 192 194 197 198 199 200 200 202
190 188 189 191 194 195 195 193 194 195 196 198 199 201 201 198 197 198 202 205 206 206 205 204 203 203 204 204 205 206 207 208 208 206 202 199 198 198 199 199 199 198 197 197 198 199 200 200 200 199 197 193 190 188 189 190 192 192 191 190 189 190 192 195 197 199 200 200 202
195 194 195 197 200 200 198 196 195 195 195 196 200 202 201 197 197 200 205 208 208 208 207 207 207 206 206 207 207 208 208 209 208 205 201 197 197 198 199 199 198 197 197 197 198 199 200 200 200 199 195 191 188 187 187 188 190 191 190 189 189 190 192 194 195 196 197 199 201
200 201 202 202 203 203 201 198 197 195 195 197 201 201 199 196 198 203 207 209 208 209 210 210 209 209 209 209 209 209 210 210 209 206 202 198 198 199 199 199 198 196 196 196 197 199 200 201 200 198 195 191 189 187 187 188 190 190 190 189 190 191 192 193 194 195 197 199 202
194 200 202 201 200 199 198 196 196 196 197 199 200 200 198 198 202 206 209 208 209 210 211 211 210 210 210 210 210 211 212 213 212 209 205 201 200 200 200 200 198 197 195 195 197 198 200 201 200 198 196 192 191 189 189 189 190 191 190 190 191 192 194 194 194 195 198 200 203
178 185 189 189 189 190 191 191 192 193 195 198 199 200 202 203 205 206 207 209 211 213 213 212 211 210 210 211 212 214 216 217 215 212 208 205 203 202 202 201 199 198 196 196 197 199 200 201 201 199 198 195 194 193 192 191 191 191 192 192 193 195 196 196 196 197 200 203 206
160 167 172 175 178 181 183 184 184 184 186 189 193 198 202 203 202 202 206 212 215 215 214 213 211 211 212 213 215 217 218 217 216 214 212 209 206 205 204 203 202 200 199 198 199 200 201 202 201 201 200 199 198 196 195 194 193 193 194 194 196 197 197 198 198 200 203 207 211
131 146 155 161 167 173 177 178 178 175 173 174 179 187 193 195 197 202 212 218 218 217 215 213 212 212 214 216 216 216 215 214 214 213 213 211 210 208 207 206 204 203 202 201 201 202 202 203 203 203 202 202 201 200 198 196 196 196 196 197 198 199 200 200 202 205 209 213 216
93 112 131 145 156 165 171 174 174 171 167 164 166 173 182 190 197 205 215 221 221 220 217 214 213 212 212 213 212 211 210 209 210 211 212 212 212 211 209 208 207 206 205 204 204 204 204 205 205 205 205 205 204 203 201 199 198 198 199 200 201 202 203 204 206 209 214 219 223
92 96 109 127 141 153 162 167 169 168 166 165 164 167 176 188 198 203 208 216 219 220 218 215 212 211 209 209 208 207 206 206 207 209 211 212 212 212 211 210 209 208 208 207 207 207 207 207 207 208 208 208 207 205 203 201 200 201 202 204 205 207 207 209 210 213 217 223 228
104 105 108 116 127 135 140 144 148 151 155 160 166 171 176 184 191 197 204 211 216 217 216 215 214 213 211 210 209 208 207 207 208 210 211 212 212 211 211 211 210 210 210 210 210 210 209 209 210 210 210 210 210 208 206 203 203 203 205 207 209 211 212 212 214 217 221 225 230
111 108 108 111 109 103 101 104 107 112 122 137 153 164 170 173 179 187 197 208 214 218 219 219 219 219 217 215 214 212 212 211 211 211 212 212 212 211 211 211 211 212 213 213 213 213 212 212 212 212 213 213 212 210 208 206 206 207 209 211 213 215 216 216 218 221 225 229 233
110 107 106 105 100 86 70 66 70 78 89 106 128 148 157 162 167 174 183 194 205 214 218 221 222 222 220 219 217 217 216 215 214 214 213 213 212 212 211 211 212 213 214 215 215 215 215 214 214 214 214 214 213 212 210 209 209 211 213 215 217 218 219 220 222 226 230 234 236
104 100 99 98 98 96 88 76 70 70 73 78 86 112 143 160 166 171 175 180 186 196 207 215 218 219 218 218 218 219 219 218 217 216 216 215 214 213 212 212 212 213 214 215 216 216 216 216 216 216 215 215 214 213 212 212 212 214 216 218 220 221 222 224 226 229 233 236 237
96 93 92 94 100 106 109 106 99 92 88 84 76 71 77 178 194 196 194 190 187 190 197 205 209 212 214 216 217 218 219 219 219 219 218 217 215 214 213 212 212 213 213 214 215 215 216 216 217 217 216 216 215 214 214 214 215 216 218 220 221 223 224 225 228 230 233 235 234
100 98 99 102 105 115 126 130 129 127 124 122 117 110 100 86 51 265 255 239 229 219 214 212 212 214 214 215 217 218 219 220 221 221 220 218 216 214 213 212 212 212 213 213 213 214 215 216 217 217 217 217 217 216 217 217 218 219 220 222 223 225 225 226 227 230 232 233 233
118 118 120 124 127 137 150 156 156 156 155 154 152 150 149 148 150 157 180 256 292 295 279 255 242 232 224 220 218 218 218 219 220 220 220 218 216 214 213 212 212 212 212 211 212 213 214 216 217 217 217 218 218 219 219 220 221 222 223 224 225 227 227 227 228 229 231 232 233
146 147 148 155 169 190 195 184 176 173 172 172 169 168 167 167 169 171 175 184 197 215 229 234 234 230 228 223 220 218 217 216 216 216 218 217 216 215 214 213 212 212 211 210 211 213 215 217 218 218 218 219 220 221 222 223 224 225 226 227 228 229 229 229 230 230 231 233 236
167 174 179 187 202 217 221 205 189 182 180 180 180 179 177 177 179 183 188 195 201 207 211 213 214 216 218 219 218 217 216 215 213 212 213 214 216 216 216 215 214 213 212 211 213 215 218 219 220 221 221 222 222 223 224 225 227 228 229 230 231 231 232 232 232 232 232 235 238
188 193 199 207 217 224 224 210 194 187 184 185 187 188 187 186 187 190 195 200 203 205 206 208 211 213 216 217 218 218 217 216 213 210 209 211 214 216 218 218 217 216 215 214 215 217 220 222 223 224 225 225 226 226 227 228 229 230 231 232 233 233 233 233 232 232 233 235 240
332 257 223 220 222 221 216 207 198 190 187 189 192 196 199 198 196 196 198 200 202 205 207 209 212 216 218 219 220 220 219 217 213 209 207 208 211 214 218 219 220 219 218 217 218 220 222 224 226 227 228 228 229 230 231 231 232 233 234 234 234 233 233 233 232 232 232 234 238
347 331 297 251 231 217 208 205 200 193 188 192 194 198 204 210 210 208 205 205 206 208 210 212 215 217 220 221 220 220 219 218 216 211 207 206 208 212 217 220 221 221 221 221 221 223 224 226 227 228 229 230 231 232 233 234 235 236 236 236 235 235 235 234 232 231 231 233 237
352 342 328 305 272 229 207 204 203 198 193 195 197 196 200 209 217 219 217 214 214 214 214 215 217 219 220 220 218 217 217 218 216 214 210 207 207 210 214 219 221 223 223 223 224 225 227 228 229 230 230 231 232 233 234 235 236 237 237 236 235 235 235 234 232 230 230 233 240
356 346 335 321 303 268 225 209 208 207 204 202 201 200 200 203 211 219 222 222 221 220 220 220 221 222 221 219 217 216 217 217 216 215 213 210 208 209 212 216 219 222 223 224 225 227 229 230 231 231 232 232 233 233 234 235 235 235 235 234 234 235 234 233 232 231 232 235 241
360 351 339 326 312 293 264 232 219 215 212 208 205 204 205 207 211 217 222 225 225 225 224 225 226 226 223 220 218 217 217 217 218 217 216 213 211 210 211 214 217 218 221 223 226 228 230 231 232 232 232 233 233 233 233 233 232 232 232 232 232 233 233 232 231 232 234 236 241
2 355 344 331 317 300 282 264 245 229 219 213 209 208 210 213 215 219 223 225 226 227 227 228 230 229 227 224 222 219 217 217 218 219 218 216 216 215 215 215 215 215 218 222 225 229 231 232 232 233 232 232 233 232 231 230 229 229 229 230 231 232 232 232 232 233 235 237 240
3 359 350 337 321 305 289 276 263 251 236 222 213 211 213 218 221 224 226 228 229 229 229 229 230 231 230 228 226 222 220 219 220 220 221 221 222 222 221 220 217 216 217 220 224 227 230 231 232 232 231 231 231 231 229 228 227 226 225 225 227 230 233 236 237 238 239 241 242
1 0 355 344 328 310 293 279 269 263 256 244 224 216 215 219 223 227 229 231 232 232 231 229 229 229 229 227 228 228 227 225 224 224 225 226 227 228 228 226 223 219 219 222 224 226 227 229 231 231 231 230 230 229 227 226 224 222 221 220 222 227 233 240 244 246 246 246 246
357 358 356 350 339 321 302 286 275 268 265 258 243 228 221 219 221 224 227 230 233 235 234 232 231 229 229 229 229 232 234 233 231 229 229 230 231 232 232 231 227 224 222 224 225 226 226 227 228 229 229 229 228 227 226 224 223 221 219 218 221 226 232 240 245 248 248 248 248
352 353 353 351 346 334 316 297 285 276 270 263 255 242 230 223 221 221 223 226 231 235 237 237 234 232 230 230 230 232 234 236 236 235 235 235 235 236 235 234 231 228 226 225 224 224 224 223 224 226 227 227 226 225 224 223 222 220 219 220 223 227 232 236 239 241 244 248 250
348 347 347 347 345 340 329 313 295 285 278 271 264 252 241 233 226 223 223 226 230 234 238 239 237 234 232 231 231 232 233 235 237 239 239 239 238 238 238 237 234 232 230 228 226 226 224 222 222 223 226 227 226 225 223 221 221 221 222 223 226 228 230 232 233 237 243 250 254
346 343 342 342 341 339 334 325 310 295 284 278 273 263 253 245 237 231 228 228 230 234 237 239 238 235 233 232 232 232 233 234 236 238 240 240 240 240 240 240 238 235 232 230 228 228 227 224 219 218 221 226 228 227 224 222 222 222 224 226 227 228 228 229 230 235 244 252 256
344 341 338 337 336 335 333 328 320 307 293 282 277 272 264 255 248 241 235 233 232 234 236 238 238 236 234 232 232 233 234 235 235 237 238 239 239 239 240 242 241 238 235 232 230 229 229 226 219 214 216 222 227 229 228 225 223 222 224 226 227 228 228 228 230 235 243 250 253
344 339 336 333 331 330 329 326 322 316 305 290 280 273 268 262 258 252 245 240 238 238 238 239 239 238 236 234 234 234 235 235 235 236 237 238 239 240 240 241 242 241 239 237 234 231 230 229 223 217 216 220 224 229 231 230 227 224 223 224 225 227 228 229 231 235 240 244 247
344 339 334 330 328 326 325 323 320 316 310 300 286 275 267 264 262 259 254 249 246 244 243 243 243 241 239 236 235 236 236 236 237 237 238 239 240 241 241 242 242 242 242 241 240 237 234 231 227 223 220 220 223 226 230 233 234 231 228 226 225 225 227 229 231 234 237 240 242
Height
1369 1370 1371 1372 1373 1375 1377 1379 1380 1382 1384 1387 1389 1392 1395 1397 1398 1401 1403 1405 1407 1408 1410 1413 1415 1417 1419 1421 1423 1425 1426 1427 1429 1430 1432 1433 1435 1436 1437 1438 1440 1441 1442 1444 1445 1447 1448 1449 1450 1451 1452 1453 1455 1456 1458 1459 1460 1461 1463 1464 1465 1466 1467 1468 1469 1470 1471 1472 1473
1370 1371 1372 1373 1374 1376 1378 1380 1381 1383 1385 1388 1390 1392 1395 1397 1399 1401 1403 1405 1408 1409 1411 1413 1416 1418 1420 1422 1423 1425 1426 1427 1428 1430 1431 1433 1434 1436 1437 1438 1439 1441 1442 1443 1445 1446 1447 1448 1449 1451 1452 1453 1454 1455 1457 1458 1459 1461 1462 1463 1464 1465 1466 1467 1468 1469 1471 1472 1473
1371 1372 1373 1374 1375 1377 1378 1380 1382 1383 1386 1388 1390 1393 1395 1397 1398 1401 1403 1406 1408 1410 1412 1414 1417 1419 1420 1422 1423 1425 1426 1427 1428 1429 1431 1433 1434 1435 1437 1438 1439 1440 1442 1443 1444 1446 1447 1448 1449 1450 1451 1452 1453 1455 1456 1457 1458 1460 1461 1462 1463 1464 1465 1466 1468 1469 1470 1471 1472
1372 1373 1373 1375 1376 1377 1378 1380 1382 1384 1387 1389 1391 1393 1395 1397 1399 1401 1404 1407 1408 1411 1413 1415 1417 1419 1420 1422 1423 1424 1426 1427 1428 1429 1431 1433 1434 1435 1436 1437 1439 1440 1441 1443 1444 1445 1447 1448 1448 1450 1451 1452 1453 1454 1455 1456 1458 1459 1460 1461 1463 1463 1464 1466 1467 1468 1469 1470 1471
1373 1373 1374 1376 1377 1378 1379 1381 1383 1386 1388 1390 1392 1394 1396 1398 1400 1403 1405 1407 1409 1411 1413 1415 1417 1419 1420 1422 1423 1424 1425 1427 1428 1429 1431 1432 1433 1435 1436 1437 1438 1439 1441 1442 1444 1445 1446 1447 1448 1449 1450 1451 1452 1453 1455 1456 1457 1458 1459 1460 1462 1463 1464 1465 1467 1468 1468 1469 1470
1373 1374 1376 1377 1378 1379 1380 1382 1384 1386 1388 1390 1392 1394 1397 1399 1401 1403 1405 1407 1409 1411 1413 1415 1417 1418 1420 1422 1423 1424 1425 1427 1428 1429 1431 1432 1433 1434 1435 1437 1438 1439 1440 1442 1443 1444 1446 1447 1448 1448 1450 1451 1452 1453 1454 1455 1457 1458 1458 1460 1461 1462 1463 1465 1466 1467 1468 1469 1470
1374 1375 1377 1378 1379 1380 1381 1383 1385 1387 1389 1391 1393 1395 1397 1399 1402 1404 1406 1407 1409 1411 1413 1415 1416 1418 1420 1421 1423 1424 1425 1426 1428 1429 1430 1432 1433 1434 1435 1436 1438 1439 1440 1441 1443 1444 1445 1446 1447 1448 1449 1450 1451 1452 1453 1455 1456 1457 1458 1459 1460 1462 1463 1465 1466 1467 1467 1468 1469
1375 1377 1378 1379 1380 1382 1383 1384 1385 1388 1390 1392 1394 1396 1398 1400 1402 1404 1406 1407 1409 1411 1413 1414 1416 1418 1419 1421 1423 1424 1425 1426 1427 1428 1430 1431 1433 1434 1435 1436 1437 1438 1439 1441 1442 1443 1444 1445 1446 1447 1448 1449 1450 1452 1453 1454 1455 1456 1457 1458 1460 1461 1463 1464 1465 1466 1467 1468 1468
1377 1378 1379 1380 1382 1383 1384 1385 1387 1388 1391 1393 1395 1397 1399 1400 1402 1404 1405 1407 1408 1410 1412 1414 1416 1418 1419 1421 1422 1423 1424 1426 1427 1428 1429 1431 1432 1433 1434 1436 1437 1438 1439 1440 1441 1442 1443 1445 1446 1447 1448 1448 1450 1451 1452 1453 1454 1455 1457 1458 1459 1460 1462 1463 1464 1465 1466 1467 1468
1378 1380 1381 1382 1383 1384 1385 1386 1388 1390 1392 1394 1396 1398 1399 1401 1403 1404 1405 1407 1409 1411 1412 1414 1416 1417 1419 1420 1422 1423 1424 1425 1426 1428 1429 1431 1432 1433 1434 1435 1436 1437 1438 1439 1440 1442 1443 1444 1445 1446 1447 1448 1449 1450 1452 1453 1454 1455 1456 1457 1458 1460 1461 1462 1463 1464 1465 1466 1467
1380 1381 1382 1383 1384 1385 1386 1388 1389 1391 1393 1395 1397 1398 1400 1401 1403 1404 1405 1407 1409 1411 1412 1414 1415 1417 1418 1419 1421 1422 1423 1424 1426 1428 1429 1430 1432 1433 1434 1435 1436 1437 1438 1439 1440 1441 1442 1443 1444 1445 1447 1448 1449 1450 1451 1452 1453 1454 1456 1457 1458 1459 1460 1461 1462 1463 1464 1465 1466
1382 1383 1384 1384 1385 1387 1388 1389 1391 1392 1394 1396 1398 1399 1400 1402 1403 1404 1406 1407 1409 1411 1412 1414 1415 1416 1418 1419 1420 1421 1423 1424 1426 1427 1429 1430 1431 1433 1434 1435 1436 1437 1438 1438 1439 1441 1442 1443 1444 1445 1446 1447 1448 1449 1451 1452 1453 1454 1455 1456 1457 1458 1459 1460 1461 1462 1463 1464 1465
1384 1385 1386 1386 1387 1388 1389 1391 1392 1394 1395 1397 1398 1400 1401 1401 1403 1404 1406 1408 1409 1411 1412 1413 1414 1416 1417 1418 1420 1421 1423 1424 1426 1427 1428 1430 1431 1432 1433 1434 1435 1436 1437 1438 1439 1440 1441 1442 1443 1444 1445 1446 1448 1449 1450 1451 1452 1453 1454 1455 1456 1458 1459 1460 1461 1462 1462 1463 1464
1386 1387 1388 1388 1389 1390 1391 1392 1393 1395 1396 1397 1398 1400 1400 1401 1403 1404 1406 1408 1409 1410 1412 1413 1414 1415 1417 1418 1420 1421 1422 1424 1425 1426 1428 1429 1431 1432 1433 1434 1435 1436 1437 1438 1439 1440 1441 1442 1443 1443 1445 1446 1447 1448 1449 1450 1451 1452 1453 1454 1456 1457 1458 1459 1460 1461 1461 1462 1463
1388 1388 1389 1390 1390 1391 1392 1393 1394 1395 1396 1397 1398 1399 1401 1402 1403 1405 1407 1408 1409 1410 1411 1413 1414 1415 1417 1418 1419 1421 1422 1423 1424 1426 1427 1428 1430 1431 1432 1433 1434 1435 1436 1437 1438 1439 1440 1441 1442 1443 1444 1445 1446 1447 1448 1449 1450 1452 1453 1454 1455 1456 1457 1458 1459 1460 1460 1461 1462
1390 1391 1391 1391 1392 1393 1393 1394 1395 1395 1396 1398 1399 1400 1401 1403 1404 1406 1407 1408 1409 1410 1412 1413 1414 1415 1417 1418 1419 1420 1421 1422 1423 1425 1426 1428 1429 1430 1432 1433 1433 1435 1436 1437 1438 1438 1439 1440 1442 1443 1443 1444 1446 1447 1448 1449 1450 1451 1452 1453 1454 1456 1457 1458 1458 1459 1460 1460 1461
1390 1392 1393 1393 1393 1394 1394 1395 1396 1396 1397 1398 1399 1401 1402 1403 1405 1406 1407 1408 1410 1411 1412 1413 1414 1415 1416 1417 1418 1419 1420 1421 1423 1424 1426 1427 1428 1430 1431 1432 1433 1434 1435 1436 1437 1438 1439 1440 1441 1442 1443 1444 1445 1446 1447 1448 1449 1450 1451 1453 1454 1455 1456 1457 1457 1458 1459 1459 1460
1391 1391 1392 1393 1394 1395 1395 1396 1396 1397 1398 1399 1400 1401 1403 1404 1405 1406 1408 1408 1409 1411 1412 1413 1413 1414 1415 1416 1417 1418 1419 1421 1422 1424 1425 1427 1428 1429 1430 1431 1432 1433 1434 1435 1436 1437 1438 1439 1440 1441 1442 1443 1444 1445 1446 1447 1448 1450 1451 1452 1453 1454 1455 1456 1457 1457 1458 1458 1459
1392 1392 1392 1393 1394 1395 1396 1396 1396 1397 1398 1400 1401 1402 1403 1404 1406 1407 1408 1409 1410 1411 1412 1412 1413 1414 1415 1416 1417 1418 1419 1421 1422 1423 1425 1426 1427 1428 1429 1430 1431 1432 1433 1434 1435 1436 1437 1438 1439 1440 1441 1442 1443 1444 1445 1447 1448 1449 1450 1451 1452 1453 1454 1455 1456 1456 1457 1457 1458
1393 1393 1393 1394 1394 1395 1396 1397 1398 1398 1399 1401 1402 1403 1404 1405 1406 1407 1408 1409 1410 1411 1412 1413 1413 1414 1415 1416 1417 1418 1419 1420 1422 1423 1424 1425 1426 1427 1428 1429 1430 1431 1432 1433 1434 1436 1437 1438 1438 1439 1440 1441 1442 1443 1444 1445 1447 1448 1449 1450 1451 1452 1453 1454 1454 1455 1456 1456 1457
1393 1394 1395 1396 1396 1397 1397 1398 1399 1400 1401 1402 1403 1403 1404 1404 1405 1406 1408 1408 1409 1410 1411 1412 1413 1414 1415 1415 1416 1418 1418 1420 1421 1422 1423 1424 1425 1426 1427 1428 1429 1430 1431 1433 1433 1435 1436 1437 1438 1439 1440 1441 1442 1443 1443 1444 1446 1447 1448 1448 1450 1451 1452 1453 1453 1454 1455 1455 1456
1395 1395 1395 1396 1398 1398 1399 1399 1400 1401 1402 1403 1403 1404 1404 1405 1406 1406 1407 1407 1408 1409 1410 1412 1413 1414 1415 1415 1416 1417 1418 1419 1420 1421 1422 1423 1424 1425 1426 1427 1428 1429 1430 1432 1433 1434 1435 1436 1437 1438 1439 1440 1441 1442 1443 1443 1445 1446 1447 1448 1449 1450 1451 1452 1452 1453 1453 1454 1455
1396 1396 1397 1397 1398 1399 1399 1400 1401 1402 1403 1403 1404 1404 1405 1406 1406 1406 1406 1407 1408 1408 1410 1412 1413 1414 1414 1415 1416 1417 1418 1418 1419 1421 1422 1423 1423 1424 1425 1426 1427 1428 1429 1430 1432 1433 1434 1435 1436 1437 1438 1439 1440 1441 1442 1443 1444 1445 1446 1447 1448 1449 1449 1450 1451 1452 1453 1453 1454
1397 1398 1398 1398 1398 1399 1399 1400 1400 1401 1402 1403 1404 1404 1405 1406 1406 1407 1407 1408 1409 1410 1411 1413 1413 1414 1415 1416 1416 1417 1417 1418 1419 1420 1421 1422 1423 1423 1424 1425 1426 1427 1428 1429 1431 1432 1433 1434 1435 1436 1437 1438 1439 1440 1441 1442 1443 1444 1445 1446 1447 1448 1448 1449 1450 1451 1451 1452 1453
1398 1398 1398 1398 1398 1398 1399 1399 1400 1400 1401 1402 1403 1404 1405 1405 1406 1407 1408 1409 1410 1411 1413 1413 1414 1415 1415 1416 1416 1417 1417 1418 1418 1419 1420 1421 1422 1423 1423 1424 1425 1427 1428 1429 1430 1431 1432 1433 1434 1435 1436 1437 1438 1439 1440 1441 1442 1443 1444 1445 1446 1447 1448 1448 1449 1450 1450 1451 1452
1398 1398 1398 1398 1398 1398 1398 1399 1399 1400 1400 1401 1402 1403 1404 1405 1406 1408 1408 1410 1411 1412 1413 1413 1414 1415 1415 1415 1416 1416 1417 1417 1418 1418 1419 1420 1421 1422 1423 1424 1425 1426 1427 1428 1429 1430 1431 1432 1433 1434 1435 1436 1437 1438 1439 1440 1441 1442 1443 1444 1445 1446 1447 1447 1448 1448 1449 1450 1450
1397 1398 1398 1398 1398 1398 1398 1398 1399 1399 1400 1401 1401 1403 1404 1405 1406 1407 1408 1409 1411 1411 1412 1413 1413 1414 1414 1415 1415 1416 1416 1417 1417 1418 1419 1419 1420 1421 1422 1423 1424 1425 1426 1427 1428 1429 1430 1431 1432 1433 1434 1435 1436 1437 1438 1439 1440 1441 1442 1443 1444 1445 1446 1446 1447 1447 1448 1448 1449
1397 1397 1397 1398 1398 1398 1398 1398 1398 1399 1399 1400 1401 1402 1403 1405 1406 1407 1408 1409 1410 1410 1411 1412 1412 1413 1413 1413 1414 1415 1416 1416 1417 1418 1418 1419 1420 1421 1422 1423 1423 1424 1426 1427 1428 1428 1429 1430 1431 1432 1433 1434 1435 1436 1437 1438 1438 1439 1441 1442 1443 1443 1444 1445 1445 1446 1447 1447 1448
1397 1397 1397 1397 1397 1397 1398 1398 1398 1398 1399 1400 1401 1402 1403 1404 1405 1406 1406 1408 1408 1409 1410 1410 1411 1411 1412 1413 1413 1414 1415 1416 1416 1417 1418 1418 1419 1420 1421 1422 1423 1424 1425 1426 1427 1428 1428 1429 1430 1431 1432 1433 1433 1434 1435 1436 1437 1438 1439 1440 1441 1442 1443 1444 1444 1445 1445 1446 1446
1397 1397 1397 1397 1397 1397 1398 1398 1398 1398 1399 1399 1400 1401 1402 1403 1404 1405 1406 1406 1407 1408 1409 1409 1410 1410 1411 1412 1413 1413 1414 1415 1416 1417 1417 1418 1419 1419 1421 1422 1423 1423 1424 1425 1426 1427 1428 1428 1429 1430 1431 1432 1432 1433 1434 1435 1436 1437 1438 1439 1440 1441 1442 1442 1443 1443 1444 1444 1445
1397 1396 1396 1396 1397 1397 1397 1398 1398 1398 1399 1399 1400 1400 1401 1402 1403 1404 1405 1405 1406 1407 1408 1408 1409 1409 1410 1411 1412 1413 1413 1414 1415 1416 1417 1418 1418 1419 1420 1421 1422 1423 1423 1424 1425 1426 1427 1427 1428 1429 1430 1430 1431 1432 1433 1434 1435 1436 1437 1438 1439 1440 1441 1441 1442 1443 1443 1443 1444
1397 1396 1396 1396 1396 1396 1397 1397 1398 1398 1399 1399 1399 1400 1400 1401 1402 1403 1404 1404 1405 1406 1407 1407 1408 1408 1409 1410 1411 1411 1412 1413 1414 1415 1416 1417 1418 1419 1420 1421 1422 1422 1423 1424 1424 1425 1426 1426 1427 1428 1428 1429 1430 1431 1432 1433 1434 1435 1436 1437 1438 1438 1439 1440 1441 1441 1442 1442 1443
1397 1396 1396 1395 1395 1396 1396 1397 1397 1398 1398 1398 1399 1399 1399 1400 1401 1402 1403 1403 1404 1405 1405 1406 1407 1408 1408 1409 1410 1410 1411 1412 1413 1414 1415 1416 1417 1418 1419 1420 1421 1422 1423 1423 1424 1424 1425 1426 1426 1427 1428 1428 1429 1430 1431 1432 1433 1434 1435 1436 1437 1437 1438 1439 1440 1440 1441 1441 1442
1397 1396 1396 1395 1395 1395 1395 1396 1396 1397 1397 1398 1398 1398 1399 1399 1400 1400 1401 1402 1403 1403 1404 1405 1406 1407 1407 1408 1409 1409 1410 1411 1412 1413 1414 1415 1416 1417 1418 1419 1420 1421 1422 1423 1423 1423 1424 1425 1425 1426 1427 1428 1428 1429 1430 1431 1432 1433 1434 1435 1435 1436 1437 1438 1438 1439 1440 1440 1441
1398 1397 1396 1396 1395 1395 1395 1395 1395 1396 1396 1397 1398 1398 1398 1398 1399 1399 1400 1401 1402 1402 1403 1404 1405 1406 1406 1407 1408 1408 1409 1410 1411 1412 1413 1414 1415 1416 1417 1418 1419 1420 1421 1422 1422 1423 1423 1424 1425 1425 1426 1427 1428 1428 1429 1430 1431 1432 1433 1434 1434 1435 1436 1437 1437 1438 1439 1439 1440
1398 1398 1397 1397 1396 1396 1395 1394 1394 1394 1395 1396 1396 1397 1397 1397 1398 1398 1399 1400 1400 1401 1402 1403 1403 1404 1405 1406 1407 1407 1408 1409 1410 1411 1412 1413 1414 1415 1416 1417 1418 1419 1420 1421 1421 1422 1423 1423 1424 1424 1425 1426 1427 1428 1428 1429 1430 1431 1432 1433 1433 1434 1435 1436 1436 1437 1438 1438 1439
1399 1398 1397 1397 1397 1396 1396 1395 1394 1394 1394 1394 1395 1395 1395 1396 1396 1396 1397 1398 1399 1400 1400 1401 1402 1403 1403 1404 1405 1406 1407 1408 1409 1410 1411 1412 1413 1413 1415 1416 1417 1418 1419 1420 1420 1421 1422 1422 1423 1424 1424 1425 1426 1427 1428 1428 1429 1430 1431 1432 1433 1433 1434 1434 1435 1436 1437 1437 1438
1399 1398 1398 1397 1397 1396 1396 1395 1395 1394 1393 1393 1393 1393 1394 1394 1394 1395 1396 1396 1397 1398 1399 1400 1400 1401 1402 1403 1404 1405 1406 1407 1408 1409 1409 1410 1411 1413 1413 1414 1416 1417 1418 1419 1419 1420 1421 1421 1422 1423 1423 1424 1425 1426 1427 1428 1428 1429 1430 1431 1432 1432 1433 1433 1434 1435 1435 1436 1436
1399 1398 1398 1397 1397 1396 1396 1396 1395 1394 1394 1393 1393 1393 1393 1393 1393 1394 1394 1395 1396 1397 1398 1398 1399 1400 1401 1402 1403 1404 1405 1406 1407 1408 1408 1409 1410 1411 1412 1413 1414 1415 1416 1417 1418 1419 1420 1420 1421 1422 1423 1423 1424 1425 1426 1427 1428 1428 1429 1430 1430 1431 1432 1432 1433 1433 1434 1434 1434
1399 1398 1398 1397 1396 1396 1396 1395 1395 1394 1394 1393 1393 1393 1392 1392 1392 1393 1393 1394 1395 1395 1396 1397 1398 1398 1399 1401 1402 1402 1403 1404 1405 1406 1407 1408 1409 1410 1411 1412 1413 1414 1415 1416 1417 1418 1418 1419 1420 1421 1422 1423 1423 1424 1425 1426 1426 1427 1428 1428 1429 1430 1430 1431 1432 1432 1433 1433 1433
1399 1398 1398 1397 1396 1395 1395 1395 1394 1394 1393 1393 1393 1392 1392 1392 1392 1392 1393 1393 1394 1394 1395 1396 1397 1398 1398 1399 1400 1401 1402 1403 1403 1404 1406 1406 1407 1408 1409 1410 1411 1412 1413 1414 1415 1416 1417 1418 1419 1420 1421 1422 1422 1423 1424 1424 1425 1426 1427 1427 1428 1428 1429 1429 1430 1431 1431 1431 1432